Location: La Silve
(44.2414°N, 5.8889°E)
Time: 04:20:23
(UTC+00:00)

Tiangong - Pass Details

Date: 29 June 2021
Orbit: 373 x 386 km, 41.5° (Epoch: 01 August)

Event Time Altitude Azimuth Distance (km) Brightness Sun altitude
Exits shadow 01:43:52 44° 161° (SSE) 528 1.4 -16.8°
Drops below altitude 10° 01:46:32 10° 111° (ESE) 1,386 4.0 -16.6°
Sets 01:48:38 0° 105° (ESE) 2,240 5.1 -16.4°
